Regional Weather Roundup
Issued by NWS

Home | Current Version | Previous Version | Graphics & Text | Print | Product List | Glossary On
Versions: 1 2 3 4 5 6 7 8 9 10 11 12 13 14 15 16 17 18 19 20 21 22 23 24 25 26 27 28 29 30 31 32 33 34 35 36 37 38 39 40 41 42 43 44 45 46 47 48 49 50
000
ASUS43 KLMK 221110
RWRKY
KENTUCKY REGIONAL WEATHER ROUNDUP
NATIONAL WEATHER SERVICE LOUISVILLE KY
700 AM EDT TUE AUG 22 2017

NOTE "FAIR" INDICATES FEW OR NO CLOUDS BELOW 12,000 FEET
WITH NO SIGNIFICANT WEATHER AND/OR OBSTRUCTIONS TO VISIBILITY.

KYZ001>023-026-027-061>063-070>075-221200-
WESTERN AND SOUTH CENTRAL KENTUCKY

CITY           SKY/WX    TMP DP  RH WIND       PRES   REMARKS
PADUCAH        PTCLDY    77  73  87 SW7       29.99R
HENDERSON      NOT AVBL
OWENSBORO      PTCLDY    74  72  93 S7        30.00R
HOPKINSVILLE   CLEAR     75  72  91 SW7       30.03R
BOWLING GREEN  PTCLDY    76  70  82 S3        30.04R
GLASGOW        PTCLDY    73  67  83 S3        30.05R
$$

KYZ024-025-028>034-038-045-046-053-221200-
NORTH CENTRAL KENTUCKY

CITY           SKY/WX    TMP DP  RH WIND       PRES   REMARKS
LOUISVILLE/SDF MOCLDY    79  69  71 S8        30.00S
LOUISVILLE/LOU CLOUDY    75  71  87 S5        30.01S
FORT KNOX      PTCLDY    73  68  84 S7        30.01S
$$

KYZ035>037-039>044-047>052-055>060-089>105-221200-
NORTHEAST KENTUCKY

CITY           SKY/WX    TMP DP  RH WIND       PRES   REMARKS
LEXINGTON      CLEAR     73  67  81 S8        30.05S
COVINGTON      MOCLDY    74  70  87 S8        29.99S
FRANKFORT      CLEAR     73  66  78 S7        30.02S
$$

KYZ054-064>069-076>088-106>120-221200-
SOUTHEAST KENTUCKY

CITY           SKY/WX    TMP DP  RH WIND       PRES   REMARKS
JACKSON        CLEAR     70  67  90 CALM      30.10S
LONDON         CLEAR     68  65  90 CALM      30.10S
SOMERSET       CLEAR     70  68  94 CALM      30.10R
MIDDLESBORO    FOG       65  65 100 CALM      30.14S VSB 1/4
MONTICELLO     SUNNY     66  65  96 W12       30.10S
$$





USA.gov is the U.S. government's official web portal to all federal, state and local government web resources and services.